TimeEST,TemperatureF,Dew PointF,Humidity,Sea Level PressureIn,VisibilityMPH,Wind Direction,Wind SpeedMPH,Gust SpeedMPH,PrecipitationIn,Events,Conditions,WindDirDegrees,DateUTC
12:52 AM,34.0,30.9,89,29.64,3.0,North,17.3,26.5,0.04,Snow,Light Snow,360,2012-11-08 05:52:00
1:52 AM,35.1,32.0,89,29.63,5.0,North,10.4,26.5,0.03,Rain,Light Rain,360,2012-11-08 06:52:00
2:52 AM,37.9,35.1,89,29.60,3.0,North,17.3,35.7,0.02,Snow,Light Snow,360,2012-11-08 07:52:00
3:02 AM,37.9,35.1,89,29.59,2.5,North,17.3,33.4,0.00,Snow,Light Snow,10,2012-11-08 08:02:00
3:16 AM,37.9,35.1,89,29.59,2.5,North,18.4,32.2,0.01,Snow,Light Snow,10,2012-11-08 08:16:00
3:27 AM,39.0,35.1,86,29.59,3.0,North,18.4,33.4,0.01,,Overcast,10,2012-11-08 08:27:00
3:52 AM,39.0,35.1,86,29.58,4.0,North,17.3,28.8,0.02,Rain,Light Rain,360,2012-11-08 08:52:00
4:00 AM,37.9,35.1,89,29.57,6.0,North,17.3,28.8,0.01,Rain,Light Rain,360,2012-11-08 09:00:00
4:16 AM,39.0,35.1,86,29.57,5.0,North,16.1,28.8,0.01,Rain,Light Rain,360,2012-11-08 09:16:00
4:27 AM,37.9,35.1,89,29.56,5.0,North,18.4,38.0,0.01,Rain,Light Rain,360,2012-11-08 09:27:00
4:34 AM,39.0,35.1,86,29.55,4.0,North,17.3,38.0,0.01,Rain,Light Rain,360,2012-11-08 09:34:00
4:44 AM,37.9,35.1,89,29.55,4.0,North,17.3,29.9,0.02,Snow,Light Snow,350,2012-11-08 09:44:00
4:52 AM,37.9,35.1,89,29.56,4.0,North,13.8,29.9,0.02,Rain,Light Rain,350,2012-11-08 09:52:00
5:52 AM,37.0,34.0,89,29.55,7.0,NNW,13.8,29.9,0.01,Rain,Light Rain,340,2012-11-08 10:52:00
6:52 AM,36.0,33.1,89,29.55,5.0,North,18.4,29.9,0.02,Rain,Light Rain,350,2012-11-08 11:52:00
7:52 AM,37.0,34.0,89,29.55,8.0,North,20.7,29.9,0.08,Rain,Light Rain,350,2012-11-08 12:52:00
8:39 AM,37.0,34.0,89,29.54,2.5,North,16.1,31.1,0.01,Snow,Light Snow,350,2012-11-08 13:39:00
8:52 AM,37.9,35.1,89,29.54,3.0,NNW,18.4,32.2,0.01,Rain,Light Rain,340,2012-11-08 13:52:00
9:28 AM,37.9,35.1,89,29.54,2.5,North,19.6,32.2,0.01,Snow,Light Snow,350,2012-11-08 14:28:00
9:52 AM,37.9,35.1,89,29.54,2.0,North,18.4,29.9,0.02,Snow,Light Snow,350,2012-11-08 14:52:00
10:01 AM,39.0,35.1,86,29.54,1.8,North,18.4,33.4,0.01,,Overcast,350,2012-11-08 15:01:00
10:09 AM,39.0,36.0,89,29.53,2.5,North,15.0,28.8,0.01,Rain,Light Rain,350,2012-11-08 15:09:00
10:17 AM,39.0,35.1,86,29.54,3.0,North,21.9,34.5,0.01,Rain,Light Rain,350,2012-11-08 15:17:00
10:35 AM,37.9,35.1,89,29.54,2.5,North,16.1,33.4,0.02,Snow,Light Snow,350,2012-11-08 15:35:00
10:52 AM,39.0,35.1,86,29.53,3.0,North,19.6,34.5,0.03,,Overcast,360,2012-11-08 15:52:00
11:12 AM,39.0,35.1,86,29.53,4.0,North,23.0,36.8,0.00,Rain,Light Rain,350,2012-11-08 16:12:00
12:10 PM,39.0,35.1,86,29.53,3.0,North,19.6,31.1,0.00,Rain,Light Rain,350,2012-11-08 17:10:00
12:20 PM,39.0,35.1,86,29.53,4.0,North,21.9,38.0,0.01,Rain,Light Rain,350,2012-11-08 17:20:00
12:52 PM,39.0,36.0,89,29.54,4.0,North,15.0,35.7,0.01,Rain,Light Rain,350,2012-11-08 17:52:00
1:52 PM,39.0,36.0,89,29.55,4.0,North,16.1,31.1,0.00,Rain,Light Rain,350,2012-11-08 18:52:00
2:52 PM,39.0,36.0,89,29.57,5.0,North,15.0,31.1,0.01,Rain,Light Rain,350,2012-11-08 19:52:00
3:52 PM,39.9,36.0,86,29.60,7.0,North,11.5,25.3,0.00,Rain,Light Rain,350,2012-11-08 20:52:00
4:52 PM,39.9,36.0,86,29.63,10.0,NNW,12.7,25.3,0.00,Rain,Light Rain,340,2012-11-08 21:52:00
5:52 PM,39.9,36.0,86,29.65,6.0,NNW,17.3,27.6,0.00,Rain,Light Rain,340,2012-11-08 22:52:00
6:52 PM,39.9,36.0,86,29.68,6.0,NNW,10.4,20.7,0.00,,Overcast,330,2012-11-08 23:52:00
7:52 PM,39.0,36.0,89,29.69,8.0,NNW,11.5,21.9,N/A,,Overcast,330,2012-11-09 00:52:00
8:52 PM,39.0,35.1,86,29.70,10.0,NNW,11.5,21.9,N/A,,Overcast,330,2012-11-09 01:52:00
9:03 PM,39.0,35.1,86,29.70,10.0,NNW,15.0,24.2,N/A,,Overcast,330,2012-11-09 02:03:00
9:52 PM,37.9,35.1,89,29.72,8.0,NNW,15.0,21.9,N/A,,Overcast,330,2012-11-09 02:52:00
10:48 PM,39.2,33.8,81,29.72,10.0,NNW,11.5,20.7,N/A,,Overcast,330,2012-11-09 03:48:00
10:52 PM,39.0,34.0,82,29.72,10.0,NNW,10.4,20.7,N/A,,Overcast,330,2012-11-09 03:52:00
11:52 PM,39.0,33.1,79,29.73,10.0,NNW,11.5,-,N/A,,Overcast,330,2012-11-09 04:52:00